Regional Weather Roundup
Issued by NWS Portland, ME

Current Version | Previous Version | Text Only | Print | Product List | Glossary On
Versions: 1 2 3 4 5 6 7 8 9 10 11 12 13 14 15 16 17 18 19 20 21 22 23 24 25 26 27 28 29 30 31 32 33 34 35 36 37 38 39 40 41 42 43 44 45 46 47 48 49 50
000
ASUS41 KGYX 280210
RWRGYX
WEATHER ROUNDUP FOR MAINE AND NEW HAMPSHIRE
NATIONAL WEATHER SERVICE GRAY ME
1000 PM EDT WED JUL 27 2016

MEZ002-005-006-010-012-015-018-020-021-024-026-027-029-280300-
MAINE

CITY           SKY/WX    TMP DP  RH WIND       PRES   REMARKS
PORTLAND       CLEAR     72  62  71 SW6       29.90R
SANFORD          N/A     65  63  93 CALM      29.90S
BAR HARBOR     PTCLDY    69  63  81 SW6       29.88R
WISCASSET      CLEAR     70  64  81 CALM      29.91R
ROCKLAND       CLOUDY    69  66  90 W8        29.88R
FRYEBURG       NOT AVBL
LEWISTONAUBURN CLEAR     72  63  73 SE6       29.90R
AUGUSTA        CLEAR     72  61  68 SW6       29.90R
WATERVILLE     CLEAR     73  63  70 S5        29.86R
BANGOR         PTCLDY    75  63  66 S7        29.87R
GREENVILLE       N/A     72  54  53 CALM      29.90R
MILLINOCKET    PTCLDY    72  62  71 CALM      29.86R
HOULTON        CLOUDY    68  64  87 CALM      29.83R
PRESQUE ISLE   PTCLDY    70  64  81 CALM      29.84S
FRENCHVILLE    CLOUDY    69  60  73 S5        29.84S
CARIBOU        CLOUDY    67  62  84 CALM      29.83S
$$

NHZ002-005-008-009-011-012-014-280300-
NEW HAMPSHIRE

CITY           SKY/WX    TMP DP  RH WIND       PRES   REMARKS
PORTSMOUTH     PTCLDY    71  64  77 SE1       29.87S
ROCHESTER      PTCLDY    71  62  73 CALM      29.89R
NASHUA         CLEAR     76  63  64 CALM      29.89R
MANCHESTER     PTCLDY    78  60  53 SE5       29.87S
CONCORD        CLEAR     78  61  55 CALM      29.88S
LACONIA        CLEAR     73  64  73 CALM      29.90R
PLYMOUTH       FAIR      66  64  91 CALM      29.90R
BERLIN         CLEAR     66  61  84 CALM      29.92R
WHITEFIELD     CLEAR     67  63  87 CALM      29.91S
JAFFREY        CLEAR     68  59  73 CALM      29.94R
KEENE          CLEAR     70  60  70 CALM      29.92R
LEBANON        CLEAR     70  63  78 CALM      29.89S
MT WASHINGTON  PTCLDY    54  52  94 W24         N/A
$$

VTZ005-007-008-280300-
VERMONT

CITY           SKY/WX    TMP DP  RH WIND       PRES   REMARKS
ST JOHNSBURY     N/A     71  63  75 MISG      29.88R
MONTPELIER     FAIR      70  63  78 CALM      29.95R
BURLINGTON     MOCLDY    78  64  61 CALM      29.86R
$$

MAZ007-012-024-CTZ003-RIZ002-NYZ038-NYZ072-280300-
SOUTHERN NEW ENGLAND AND NY

CITY           SKY/WX    TMP DP  RH WIND       PRES   REMARKS
BOSTON         PTCLDY    78  65  63 S6        29.87R
WORCESTER      PTCLDY    74  57  55 SW7       29.94R
NANTUCKET      CLEAR     69  66  90 S5        29.92S
PROVIDENCE     PTCLDY    77  62  59 SW6       29.90R
HARTFORD       PTCLDY    81  59  47 W8        29.90R
ALBANY         MOCLDY    77  61  57 CALM      29.91R
NEW YORK CITY  MOCLDY    82  69  64 SE10      29.91R
$$

ANZ081-ANZ082-ANZ150-NHZ014-MEZ023>029-280300-
COASTAL MARINE OBSERVATIONS

STATION/POSITION TIME  TEMP    WIND        PRES    WAVE
                       AIR SEA DIR/SP/G            HT/PER
                 (UTC) (F)     (DEG/KT/KT) (MB)    (FT/S)
MOUNT DESERT ROC 0200   66     190/ 14/ 14 1012.0R
MATINICUS ROCK   0100   68     200/ 17/ 18 1011.3S
ISLE OF SHOALS   0100   72     160/ 12/ 12 1011.6R
JEFFREYS LEDGE   0108      68                N/A     2/ 3
CASHES LEDGE BUO 0150   72 72  190/ 10/ 12 1012.2S   2/ 8
GEORGES BANK BUO 0150   68 69              1012.7R   3/ 7
$$

.............KEY..............
   WCI - WIND CHILL
   TC  - TEMPERATURE IN CELSIUS
   VSB - VISIBILITY IN MILES
   HX  - HEAT INDEX
   FAIR- INDICATES FEW OR NO CLOUDS BELOW 12,000 FT, WITH NO
         SIGNIFICANT WEATHER AND/OR OBSTRUCTIONS TO VISIBILITY.





USA.gov is the U.S. government's official web portal to all federal, state and local government web resources and services.